Kiruna, Sweden

2:06 PM CEST on September 22, 2017 (GMT +0200)
Kiruna

Weather History for ESNQ - February, 2014

Change the Weather History Date:

Saturday, February 1, 2014

  Actual Average Record
Temperature  
Mean Temperature -2 °F -  
Max Temperature 5 °F - - ()
Min Temperature -9 °F - - ()
Degree Days  
Heating Degree Days 67    
Moisture  
Dew Point -4 °F    
Average Humidity 87    
Maximum Humidity 92    
Minimum Humidity 84    
Precipitation  
Precipitation 0.00 in - - ()
Sea Level Pressure  
Sea Level Pressure 29.90 in    
Wind  
Wind Speed 4 mph ()    
Max Wind Speed 8 mph    
Max Gust Speed -    
Visibility 3.8 miles    
Events Snow    
T = Trace of Precipitation, MM = Missing Value Source: Averaged Metar Reports

Daily Weather History Graph

Daily Weather History Graph

Search for Another Location

Airport or City:

Trip Planner

Search our weather history database for the weather conditions in past years. The results will help you decide how hot, cold, wet, or windy it might be!

Date:

Astronomy

Feb. 01, 2014 Rise Set
Actual Time 8:54 AM CET 2:51 PM CET
Civil Twilight 7:43 AM CET 4:02 PM CET
Nautical Twilight 6:33 AM CET 5:12 PM CET
Astronomical Twilight 5:29 AM CET 6:16 PM CET
Moon 8:11 AM CET (2/1) 6:38 PM CET (2/1)
Length of Visible Light 8h 19m
Length of Day
5h 56m
Waxing Crescent, 4% of the Moon is Illuminated
Feb 1
Waxing Crescent
Feb 6
First Quarter
Feb 15
Full
Feb 22
Last Quarter
Mar 1
New

Hourly Weather History & Observations

Time (CET) Temp. Windchill Dew Point Humidity Pressure Visibility Wind Dir Wind Speed Gust Speed Precip Events Conditions
12:20 AM 5.0 °F -8.1 °F 3.2 °F 92% 30.06 in 6.2 mi SE 8.1 mph - N/A Snow Light Snow
12:50 AM 5.0 °F -6.9 °F 1.4 °F 85% 30.06 in 6.2 mi SSE 6.9 mph - N/A Snow Light Snow
1:20 AM 5.0 °F -6.9 °F 1.4 °F 85% 30.06 in 6.2 mi SSE 6.9 mph - N/A   Overcast
1:50 AM 5.0 °F -4.1 °F 1.4 °F 85% 30.06 in 6.2 mi SE 4.6 mph - N/A Snow Light Snow
2:20 AM 5.0 °F -5.6 °F 1.4 °F 85% 30.04 in 5.0 mi South 5.8 mph - N/A Snow Light Snow
2:50 AM 5.0 °F -6.9 °F 1.4 °F 85% 30.04 in 6.2 mi SSE 6.9 mph - N/A Snow Light Snow
3:20 AM 5.0 °F -5.6 °F 1.4 °F 85% 30.04 in 6.2 mi SSE 5.8 mph - N/A Snow Light Snow
3:50 AM 5.0 °F -2.1 °F 1.4 °F 85% 30.04 in - SE 3.5 mph - N/A Snow Light Snow
4:20 AM 3.2 °F -6.2 °F 1.4 °F 92% 30.01 in 1.5 mi SE 4.6 mph - N/A Snow Light Snow
4:50 AM 3.2 °F -4.2 °F 1.4 °F 92% 30.01 in 1.8 mi East 3.5 mph - N/A Snow Light Snow
5:20 AM 3.2 °F -4.2 °F -0.4 °F 85% 29.98 in 0.7 mi East 3.5 mph - N/A Snow Light Snow
5:50 AM 3.2 °F -7.8 °F 1.4 °F 92% 29.98 in - SSE 5.8 mph - N/A Snow Light Snow
6:20 AM 3.2 °F -6.2 °F -0.4 °F 85% 29.98 in - SSE 4.6 mph - N/A Snow Light Snow
6:50 AM 3.2 °F -4.2 °F 1.4 °F 92% 29.95 in - SE 3.5 mph - N/A Snow Light Snow
7:20 AM 3.2 °F -4.2 °F 1.4 °F 92% 29.95 in - ESE 3.5 mph - N/A Snow Light Snow
7:50 AM 3.2 °F -9.1 °F -0.4 °F 85% 29.95 in 3.1 mi SSE 6.9 mph - N/A Snow Light Snow
8:20 AM 3.2 °F -7.8 °F -0.4 °F 85% 29.92 in 6.2 mi SE 5.8 mph - N/A Snow Light Snow
8:50 AM 3.2 °F -7.8 °F -0.4 °F 85% 29.92 in 3.7 mi ESE 5.8 mph - N/A Snow Light Snow
9:20 AM 1.4 °F -8.3 °F -2.2 °F 85% 29.92 in 1.5 mi ENE 4.6 mph - N/A Snow Light Snow
9:50 AM 1.4 °F -8.3 °F -2.2 °F 85% 29.92 in 0.7 mi ENE 4.6 mph - N/A Snow Light Snow
10:20 AM -0.4 °F -8.3 °F -2.2 °F 92% 29.92 in 0.6 mi ENE 3.5 mph - N/A Snow Light Snow
10:50 AM -0.4 °F - -2.2 °F 92% 29.92 in 0.6 mi ENE 2.3 mph - N/A Snow Light Snow
11:20 AM 1.4 °F - -2.2 °F 85% 29.89 in 0.6 mi NNE 2.3 mph - N/A Snow Light Snow
11:50 AM 1.4 °F -8.3 °F -2.2 °F 85% 29.89 in 0.7 mi ENE 4.6 mph - N/A Snow Light Snow
12:20 PM -0.4 °F -8.3 °F -2.2 °F 92% 29.89 in 1.5 mi ENE 3.5 mph - N/A Snow Light Snow
12:50 PM -0.4 °F - -2.2 °F 92% 29.89 in 3.1 mi East 2.3 mph - N/A Snow Light Snow
1:20 PM -0.4 °F - -2.2 °F 92% 29.86 in 3.1 mi ENE 2.3 mph - N/A Snow Light Snow
1:50 PM -0.4 °F -8.3 °F -2.2 °F 92% 29.86 in 3.7 mi NE 3.5 mph - N/A Snow Light Snow
2:20 PM -0.4 °F -8.3 °F -4.0 °F 85% 29.86 in 3.7 mi North 3.5 mph - N/A Snow Light Snow
2:50 PM -0.4 °F -8.3 °F -4.0 °F 85% 29.86 in 0.9 mi ENE 3.5 mph - N/A Snow Snow
3:20 PM -0.4 °F -8.3 °F -4.0 °F 85% 29.83 in 3.1 mi NE 3.5 mph - N/A Snow Light Snow
3:50 PM -2.2 °F -10.4 °F -5.8 °F 85% 29.83 in 1.0 mi North 3.5 mph - N/A Snow Light Snow
4:50 PM -5.8 °F - -9.4 °F 84% 29.80 in 0.6 mi Variable 2.3 mph - N/A Snow Light Snow
5:20 PM -7.6 °F - -11.2 °F 84% 29.80 in 6.2 mi Variable 2.3 mph - N/A Snow Light Snow
5:50 PM -7.6 °F -16.5 °F -11.2 °F 84% 29.80 in 6.2 mi South 3.5 mph - N/A Snow Snow Grains
6:20 PM -7.6 °F -16.5 °F -11.2 °F 84% 29.80 in 6.2 mi South 3.5 mph - N/A   Ice Crystals
6:50 PM -9.4 °F - -13.0 °F 84% 29.80 in 6.2 mi Variable 1.2 mph - N/A   Scattered Clouds
7:20 PM -7.6 °F - -11.2 °F 84% 29.83 in 6.2 mi WSW 2.3 mph - N/A Snow Snow Grains
7:50 PM -2.2 °F -14.2 °F -5.8 °F 85% 29.83 in 4.3 mi SSW 5.8 mph - N/A Snow Light Snow
8:20 PM -5.8 °F - -9.4 °F 84% 29.80 in - SW 2.3 mph - N/A Snow Light Snow
8:50 PM -5.8 °F - -9.4 °F 84% 29.80 in 5.0 mi Variable 2.3 mph - N/A Snow Light Snow
9:20 PM -4.0 °F - -7.6 °F 85% 29.77 in 6.2 mi ENE 1.2 mph - N/A Snow Light Snow
9:50 PM -5.8 °F - -9.4 °F 84% 29.77 in 6.2 mi Variable 1.2 mph - N/A   Overcast
10:20 PM -7.6 °F - -11.2 °F 84% 29.80 in 6.2 mi Variable 2.3 mph - N/A   Mostly Cloudy
10:50 PM -9.4 °F - -13.0 °F 84% 29.80 in 6.2 mi Calm Calm - N/A Snow Light Snow
11:20 PM -7.6 °F - -11.2 °F 84% 29.80 in 3.7 mi Variable 2.3 mph - N/A Snow Light Snow
11:50 PM -5.8 °F -16.7 °F -9.4 °F 84% 29.77 in 1.2 mi SE 4.6 mph - N/A Snow Light Snow